Location: PSU-Greenbush Astrophysical Observatory
(37.5140°N, 94.9880°W)
Time: 07:38:22
(UTC-06:00)

deb Explorer IX - Pass Details

Date: 01 February 2020
Orbit: 549 x 1099 km, 38.8° (Epoch: 24 February)

Event Time Altitude Azimuth Distance (km) Brightness Sun altitude
Rises 17:31:07 0° 212° (SSW) 3,132 ? 1.5°
Reaches altitude 10° 17:33:42 10° 200° (SSW) 2,304 ? 1.0°
Maximum altitude 17:38:16 27° 143° (SE) 1,570 ? 0.2°
Drops below altitude 10° 17:43:26 10° 88° (E) 2,638 ? -0.8°
Enters shadow 17:46:14 - 78° (ENE) 3,553 ? -1.3°
Sets 17:46:36 0° 77° (ENE) 3,678 - -1.4°
